GW0774 Weather Reports


time (UTC)temp
F
wind
direction
speed
knots
gust
knots
rain 1hr
in
rain 24hr
in
rain mn
in
humidity
%
barometer
mb
20260508105039 61 0 0.0 0.9 0.01 0.04 0.04 91 1001.4
20260508104549 61 0 0.0 0.9 0.03 0.04 0.04 90 1001.5
20260508104040 61 218 0.0 0.9 0.03 0.04 0.04 90 1001.5
20260508103539 62 0 0.0 0.9 0.04 0.04 0.04 89 1001.5
20260508103051 62 232 0.0 0.9 0.04 0.04 0.04 89 1001.4
20260508102539 62 0 0.0 0.9 0.04 0.04 0.04 88 1001.6
20260508102039 62 0 0.0 0.9 0.04 0.04 0.04 87 1001.6
20260508101546 63 0 0.0 7.0 0.04 0.04 0.04 87 1001.6
20260508101040 63 232 0.0 7.0 0.04 0.04 0.04 86 1001.8
20260508100538 63 231 1.7 7.8 0.04 0.04 0.04 86 1001.8
20260508100048 64 261 1.7 7.8 0.04 0.04 0.04 85 1001.9
20260508095541 64 15 3.5 8.7 0.04 0.04 0.04 83 1001.9
20260508095040 65 61 3.5 8.7 0.03 0.03 0.03 81 1001.9
20260508094554 65 69 0.9 7.0 0.01 0.01 0.01 80 1001.9
20260508094039 65 230 1.7 4.3 0.00 0.00 0.00 80 1001.9
20260508093539 65 268 0.0 5.2 0.00 0.00 0.00 79 1001.7
20260508093042 65 237 0.9 5.2 0.00 0.00 0.00 78 1001.8
20260508092538 66 83 1.7 8.7 0.00 0.00 0.00 77 1001.9
20260508092039 66 0 1.7 8.7 0.00 0.00 0.00 77 1001.8
20260508091555 66 256 1.7 7.8 0.00 0.00 0.00 76 1001.6
20260508091039 66 32 2.6 12.2 0.00 0.00 0.00 76 1001.9
20260508090539 66 242 4.3 13.9 0.00 0.00 0.00 76 1002.1
20260508090047 67 335 3.5 13.9 0.00 0.00 0.00 75 1002.4
20260508085538 67 329 4.3 13.9 0.00 0.00 0.00 75 1002.4
20260508085038 66 46 2.6 7.8 0.00 0.00 0.00 75 1001.9
20260508084548 66 292 1.7 6.1 0.00 0.00 0.00 76 1001.9
20260508084039 66 94 1.7 6.1 0.00 0.00 0.00 77 1001.9
20260508083538 66 287 2.6 7.8 0.00 0.00 0.00 77 1001.3
20260508083124 66 79 1.7 7.8 0.00 0.00 0.00 77 1001.2
20260508082539 66 73 0.9 8.7 0.00 0.00 0.00 77 1001.6
20260508082110 66 62 0.9 8.7 0.00 0.00 0.00 76 1001.6
20260508081548 66 57 0.9 7.0 0.00 0.00 0.00 75 1001.9
20260508081038 66 265 1.7 4.3 0.00 0.00 0.00 75 1002.0
20260508080538 66 186 0.9 7.8 0.00 0.00 0.00 75 1002.0
20260508080054 66 71 1.7 7.8 0.00 0.00 0.00 75 1002.1
20260508075535 66 70 1.7 6.1 0.00 0.00 0.00 76 1002.5
20260508075038 66 138 0.9 5.2 0.00 0.00 0.00 75 1002.7
20260508074548 66 234 1.7 7.8 0.00 0.00 0.00 75 1002.8
20260508074035 66 244 1.7 7.8 0.00 0.00 0.00 75 1002.8
20260508073539 66 86 1.7 9.6 0.00 0.00 0.00 75 1003.0
20260508073059 66 336 1.7 9.6 0.00 0.00 0.00 76 1003.2
20260508072535 65 270 2.6 6.1 0.00 0.00 0.00 76 1003.2
20260508072035 65 102 1.7 6.1 0.00 0.00 0.00 76 1003.5
20260508071549 65 84 0.9 3.5 0.00 0.00 0.00 76 1003.5
20260508071035 65 236 0.9 2.6 0.00 0.00 0.00 75 1003.5
20260508070536 65 225 0.9 2.6 0.00 0.00 0.00 75 1003.5
20260508070046 65 71 0.0 2.6 0.00 0.00 0.00 75 1003.4
20260508065539 65 76 0.9 2.6 0.00 0.00 0.00 74 1003.4
20260508065035 66 242 0.9 4.3 0.00 0.00 0.00 73 1003.4
20260508064601 66 5 1.7 5.2 0.00 0.00 0.00 72 1003.2
20260508064039 66 0 0.0 8.7 0.00 0.00 0.00 71 1003.3
20260508063539 66 0 0.9 8.7 0.00 0.00 0.00 71 1003.4
20260508063048 66 289 0.9 9.6 0.00 0.00 0.00 71 1003.3
20260508062535 66 181 2.6 9.6 0.00 0.00 0.00 70 1003.5
20260508062035 66 221 1.7 9.6 0.00 0.00 0.00 70 1003.3
20260508061547 66 72 2.6 9.6 0.00 0.00 0.00 71 1003.3
20260508061036 65 46 1.7 7.8 0.00 0.00 0.00 71 1003.5
20260508060539 65 236 1.7 7.0 0.00 0.00 0.00 72 1003.5
20260508060046 65 85 0.9 7.0 0.00 0.00 0.00 72 1003.8
20260508055538 65 42 0.9 7.8 0.00 0.00 0.00 73 1003.9
20260508055035 65 51 2.6 9.6 0.00 0.00 0.00 73 1004.0
20260508054554 64 280 2.6 9.6 0.00 0.00 0.00 74 1004.1
20260508054038 64 92 2.6 7.0 0.00 0.00 0.00 76 1004.1
20260508053535 64 296 1.7 7.0 0.00 0.00 0.00 77 1004.3
20260508053050 63 224 1.7 7.0 0.00 0.00 0.00 78 1004.4
20260508052539 62 227 0.9 4.3 0.00 0.00 0.00 79 1004.6
20260508052038 62 0 0.9 2.6 0.00 0.00 0.00 80 1004.8
20260508051539 62 0 0.0 1.7 0.00 0.00 0.00 81 1004.7
20260508051039 62 0 0.0 1.7 0.00 0.00 0.00 83 1004.9
20260508050539 62 0 0.0 0.9 0.00 0.00 0.00 84 1004.9
20260508050052 62 0 0.0 0.0 0.00 0.00 0.00 83 1005.2
20260508045539 63 0 0.0 0.9 0.00 0.00 0.00 83 1005.2
20260508045040 63 0 0.0 0.9 0.00 0.00 0.00 83 1005.2
20260508044546 63 0 0.0 0.9 0.00 0.00 0.00 82 1005.2
20260508044041 63 0 0.0 0.9 0.00 0.00 0.00 82 1005.3
20260508043538 64 0 0.0 0.9 0.00 0.00 0.00 82 1005.4
20260508043046 64 0 0.0 0.9 0.00 0.00 0.00 81 1005.5
20260508042542 64 82 0.0 0.9 0.00 0.00 0.00 81 1005.6
20260508042038 64 82 0.0 0.9 0.00 0.00 0.00 80 1005.7
20260508041544 64 82 0.0 1.7 0.00 0.00 0.00 79 1005.7
20260508041039 64 84 0.0 1.7 0.00 0.00 0.00 79 1005.6
20260508040539 64 89 0.9 1.7 0.00 0.00 0.00 79 1005.8
20260508040043 65 88 0.9 3.5 0.00 0.00 0.00 79 1005.8
20260508035539 64 88 0.0 3.5 0.00 0.00 0.00 79 1006.0
20260508035039 64 84 0.9 2.6 0.00 0.00 0.00 79 1006.3
20260508034553 64 79 0.9 2.6 0.00 0.00 0.00 79 1006.3
20260508034038 64 84 0.9 2.6 0.00 0.00 0.00 80 1006.5
20260508033538 64 86 0.0 2.6 0.00 0.00 0.00 80 1006.7
20260508033046 64 99 0.0 1.7 0.00 0.00 0.00 80 1006.7
20260508032539 64 99 0.0 1.7 0.00 0.00 0.00 80 1006.8
20260508032042 64 98 0.0 0.9 0.00 0.00 0.00 80 1006.9
20260508031546 64 98 0.0 1.7 0.00 0.00 0.00 79 1007.0
20260508031039 65 97 0.0 1.7 0.00 0.00 0.00 78 1007.0
20260508030538 65 0 0.9 2.6 0.00 0.00 0.00 77 1007.1
20260508030056 65 88 0.9 2.6 0.00 0.00 0.00 75 1007.1
20260508025538 66 84 1.7 2.6 0.00 0.00 0.00 74 1007.1
20260508025038 66 0 0.0 1.7 0.00 0.00 0.00 74 1007.2
20260508024600 66 77 0.0 3.5 0.00 0.00 0.00 72 1007.5
20260508024039 66 0 0.0 5.2 0.00 0.00 0.00 72 1007.5
20260508023539 66 58 0.0 5.2 0.00 0.00 0.00 72 1007.8
20260508023052 67 340 0.9 3.5 0.00 0.00 0.00 72 1007.8
20260508022539 67 60 1.7 3.5 0.00 0.00 0.00 72 1008.0
20260508022039 67 0 0.0 3.5 0.00 0.00 0.00 72 1008.3
20260508021548 67 96 0.9 4.3 0.00 0.00 0.00 72 1008.5
20260508021038 67 54 0.0 6.1 0.00 0.00 0.00 73 1008.8
20260508020538 67 348 1.7 6.1 0.00 0.00 0.00 72 1009.1
20260508020049 67 0 0.9 1.7 0.00 0.00 0.00 73 1009.1
20260508015535 67 213 0.0 2.6 0.00 0.00 0.00 72 1009.0
20260508015038 67 0 0.0 2.6 0.00 0.00 0.00 73 1009.1
20260508014546 67 246 0.9 3.5 0.00 0.00 0.00 73 1009.2
20260508014035 67 265 0.9 3.5 0.00 0.00 0.00 73 1009.4
20260508013535 68 253 0.9 2.6 0.00 0.00 0.00 72 1009.4
20260508013052 68 41 0.0 6.1 0.00 0.00 0.00 72 1009.4
20260508012539 68 231 1.7 6.1 0.00 0.00 0.00 72 1009.6
20260508012037 68 265 0.9 7.0 0.00 0.00 0.00 71 1009.6
20260508011559 68 251 1.7 7.0 0.00 0.00 0.00 72 1009.8
20260508011038 68 259 1.7 7.0 0.00 0.00 0.00 71 1009.8
20260508010535 68 237 1.7 7.0 0.00 0.00 0.00 72 1009.7
20260508010058 68 262 2.6 7.0 0.00 0.00 0.00 72 1009.9
20260508005539 68 277 3.5 7.0 0.00 0.00 0.00 72 1010.0
20260508005038 68 64 1.7 7.0 0.00 0.00 0.00 71 1010.1
20260508004554 68 0 2.6 7.8 0.00 0.00 0.00 70 1010.2
20260508004036 68 298 0.9 7.8 0.00 0.00 0.00 71 1010.3
20260508003538 68 63 2.6 8.7 0.00 0.00 0.00 69 1010.4
20260508003056 69 222 1.7 11.3 0.00 0.00 0.00 69 1010.5
20260508002536 69 298 2.6 11.3 0.00 0.00 0.00 68 1010.7
20260508002039 70 250 2.6 8.7 0.00 0.00 0.00 69 1011.1
20260508001548 70 36 2.6 7.0 0.00 0.00 0.00 69 1011.1
20260508001038 70 275 2.6 7.0 0.00 0.00 0.00 69 1011.2
20260508000538 70 46 2.6 10.4 0.00 0.00 0.00 69 1011.4
20260508000047 70 232 1.7 10.4 0.00 0.00 0.00 70 1011.6
20260507235540 69 33 1.7 10.4 0.00 0.00 0.00 70 1011.6
20260507235035 69 84 1.7 10.4 0.00 0.00 0.00 71 1011.8
20260507234544 69 307 4.3 10.4 0.00 0.00 0.00 69 1011.7
20260507234035 69 202 1.7 7.8 0.00 0.00 0.00 70 1011.6
20260507233539 69 64 1.7 5.2 0.00 0.00 0.00 73 1011.7
20260507233043 69 271 1.7 5.2 0.00 0.00 0.00 72 1011.7
20260507232538 68 242 1.7 7.8 0.00 0.00 0.00 72 1011.8
20260507232039 68 227 1.7 7.8 0.00 0.00 0.00 73 1012.0
20260507231546 68 15 2.6 8.7 0.00 0.00 0.00 72 1012.0
20260507231039 69 238 3.5 9.6 0.00 0.00 0.00 72 1012.0
20260507230539 69 0 1.7 9.6 0.00 0.00 0.00 72 1012.0
20260507230051 69 258 1.7 8.7 0.00 0.00 0.00 72 1012.1
20260507225538 69 38 2.6 8.7 0.00 0.00 0.00 73 1012.2
20260507225039 69 73 3.5 8.7 0.00 0.00 0.00 72 1012.2
20260507224557 69 38 2.6 8.7 0.00 0.00 0.00 73 1012.3
20260507224038 69 265 1.7 6.1 0.00 0.00 0.00 72 1012.2
20260507223539 69 205 1.7 6.1 0.00 0.00 0.00 74 1012.3
20260507223046 68 190 1.7 7.0 0.00 0.00 0.00 74 1012.4
20260507222541 68 90 1.7 7.0 0.00 0.00 0.00 75 1012.4
20260507222039 67 84 0.9 3.5 0.00 0.00 0.00 74 1012.6
20260507221548 67 74 0.9 3.5 0.00 0.00 0.00 73 1012.5
20260507221040 67 85 0.9 2.6 0.00 0.00 0.00 73 1012.6
20260507220538 66 99 0.9 1.7 0.00 0.00 0.00 73 1012.7
20260507220049 66 98 0.0 5.2 0.00 0.00 0.00 75 1012.7
20260507215541 66 0 1.7 5.2 0.00 0.00 0.00 75 1012.8
20260507215038 66 83 0.9 3.5 0.00 0.00 0.00 75 1012.9
20260507214545 66 81 0.9 2.6 0.00 0.00 0.00 74 1013.0
20260507214038 66 81 0.9 5.2 0.00 0.00 0.00 74 1013.1
20260507213538 65 91 0.9 8.7 0.00 0.00 0.00 75 1013.1
20260507213102 65 92 0.9 8.7 0.00 0.00 0.00 76 1013.1
20260507212539 65 98 2.6 5.2 0.00 0.00 0.00 74 1013.2
20260507212040 65 82 1.7 3.5 0.00 0.00 0.00 74 1013.2
20260507211550 66 76 0.9 2.6 0.00 0.00 0.00 75 1013.4
20260507211037 65 0 0.9 3.5 0.00 0.00 0.00 76 1013.2
20260507210537 64 90 1.7 3.5 0.00 0.00 0.00 78 1013.1
20260507210046 63 0 1.7 4.3 0.00 0.00 0.00 79 1013.1
20260507205537 63 96 0.9 4.3 0.00 0.00 0.00 80 1013.2
20260507205037 62 90 0.0 2.6 0.00 0.00 0.00 80 1013.3
20260507204557 62 0 0.0 2.6 0.00 0.00 0.00 80 1013.4
20260507204036 62 99 0.9 2.6 0.00 0.00 0.00 81 1013.2
20260507203540 62 99 0.0 2.6 0.00 0.00 0.00 82 1013.3
20260507203045 61 99 0.0 2.6 0.00 0.00 0.00 82 1013.3
20260507202537 61 109 0.9 2.6 0.00 0.00 0.00 83 1013.3
20260507202039 61 113 0.9 2.6 0.00 0.00 0.00 85 1013.2
20260507201547 60 113 1.7 2.6 0.00 0.00 0.00 86 1013.4
20260507201036 60 103 0.9 1.7 0.00 0.00 0.00 86 1013.3
20260507200536 59 102 0.9 1.7 0.00 0.00 0.00 87 1013.4
20260507200042 59 102 0.0 0.9 0.00 0.00 0.00 87 1013.3
20260507195536 59 0 0.0 0.9 0.00 0.00 0.00 87 1013.3
20260507195040 59 0 0.0 0.9 0.00 0.00 0.00 87 1013.3
20260507194554 59 102 0.0 0.9 0.00 0.00 0.00 87 1013.3
20260507194039 59 102 0.0 0.9 0.00 0.00 0.00 86 1013.3
20260507193542 59 101 0.0 1.7 0.00 0.00 0.00 86 1013.3
20260507193108 59 101 0.9 1.7 0.00 0.00 0.00 87 1013.3
20260507192540 58 101 0.0 1.7 0.00 0.00 0.00 88 1013.2
20260507192040 58 101 0.9 1.7 0.00 0.00 0.00 88 1013.3
20260507191551 57 115 0.9 1.7 0.00 0.00 0.00 88 1013.3
20260507191041 57 115 0.9 1.7 0.00 0.00 0.00 88 1013.3
20260507190539 58 114 0.9 1.7 0.00 0.00 0.00 87 1013.4
20260507185540 58 113 0.9 2.6 0.00 0.00 0.00 87 1013.4
20260507185041 58 113 1.7 2.6 0.00 0.00 0.00 87 1013.3
20260507184548 58 113 1.7 2.6 0.00 0.00 0.00 88 1013.3
20260507184041 58 111 0.9 2.6 0.00 0.00 0.00 87 1013.4
20260507183540 58 110 1.7 2.6 0.00 0.00 0.00 86 1013.4
20260507183058 58 110 0.9 2.6 0.00 0.00 0.00 85 1013.4
20260507182542 59 109 1.7 2.6 0.00 0.00 0.00 85 1013.5
20260507182040 59 99 1.7 2.6 0.00 0.00 0.00 84 1013.4
20260507181550 59 98 0.9 2.6 0.00 0.00 0.00 84 1013.5
20260507181040 59 91 0.9 2.6 0.00 0.00 0.00 85 1013.5
20260507180541 59 91 0.0 0.9 0.00 0.00 0.00 85 1013.6
20260507180052 60 0 0.0 0.9 0.00 0.00 0.00 85 1013.6
20260507175539 60 0 0.0 0.9 0.00 0.00 0.00 85 1013.7
20260507175039 60 0 0.0 0.9 0.00 0.00 0.00 85 1013.6
20260507174551 60 0 0.0 1.7 0.00 0.00 0.00 85 1013.7
20260507174041 60 0 0.0 1.7 0.00 0.00 0.00 86 1013.7
20260507173539 59 0 0.0 0.9 0.00 0.00 0.00 86 1013.7
20260507173057 59 0 0.0 0.9 0.00 0.00 0.00 87 1013.7
20260507172543 59 74 0.0 0.9 0.00 0.00 0.00 87 1013.7
20260507172038 59 0 0.0 0.9 0.00 0.00 0.00 86 1013.7
20260507171555 59 0 0.0 0.9 0.00 0.00 0.00 86 1013.8
20260507171039 59 0 0.0 0.9 0.00 0.00 0.00 86 1013.8
20260507170539 59 0 0.0 0.0 0.00 0.00 0.00 86 1013.9
20260507170054 59 0 0.0 0.0 0.00 0.00 0.00 86 1014.0
20260507165538 59 0 0.0 0.9 0.00 0.00 0.00 86 1014.0
20260507165040 60 0 0.0 1.7 0.00 0.00 0.00 86 1014.1
20260507164554 60 0 0.0 1.7 0.00 0.00 0.00 86 1014.0
20260507164038 60 0 0.0 0.9 0.00 0.00 0.00 86 1014.0
20260507163542 60 0 0.0 0.9 0.00 0.00 0.00 85 1014.0
20260507163051 60 0 0.0 0.9 0.00 0.00 0.00 85 1014.1
20260507162540 60 0 0.0 0.9 0.00 0.00 0.00 85 1014.1
20260507162041 60 0 0.0 1.7 0.00 0.00 0.00 84 1014.3
20260507161548 60 87 0.0 1.7 0.00 0.00 0.00 84 1014.3
20260507161039 60 0 0.0 0.9 0.00 0.00 0.00 84 1014.2
20260507160543 60 0 0.0 0.9 0.00 0.00 0.00 84 1014.3
20260507160058 61 88 0.0 0.9 0.00 0.00 0.00 84 1014.3
20260507155538 61 0 0.0 0.9 0.00 0.00 0.00 84 1014.3
20260507155042 61 0 0.0 2.6 0.00 0.00 0.00 84 1014.3
20260507154554 61 0 0.0 2.6 0.00 0.00 0.00 84 1014.5
20260507154041 61 88 0.0 2.6 0.00 0.00 0.00 84 1014.5
20260507153541 61 90 0.0 1.7 0.00 0.00 0.00 84 1014.6
20260507153052 61 91 0.9 3.5 0.00 0.00 0.00 84 1014.6
20260507152538 61 103 0.0 3.5 0.00 0.00 0.00 84 1014.7
20260507152038 61 62 0.0 3.5 0.00 0.00 0.00 85 1014.6
20260507151549 61 0 0.0 2.6 0.00 0.00 0.00 86 1014.7
20260507151038 60 0 0.0 2.6 0.00 0.00 0.00 87 1014.7
20260507150540 60 0 0.0 0.9 0.00 0.00 0.00 88 1014.8
20260507150052 60 0 0.0 2.6 0.00 0.00 0.00 88 1014.9
20260507145536 59 0 0.0 2.6 0.00 0.00 0.00 89 1014.9
20260507145039 59 0 0.0 0.9 0.00 0.00 0.00 89 1015.0
20260507144551 59 0 0.0 0.9 0.00 0.00 0.00 89 1015.1
20260507144037 59 0 0.0 0.0 0.00 0.00 0.00 89 1015.2
20260507143539 59 0 0.0 0.9 0.00 0.00 0.00 89 1015.2
20260507143049 59 0 0.0 0.9 0.00 0.00 0.00 89 1015.2
20260507142537 59 101 0.0 0.9 0.00 0.00 0.00 89 1015.4
20260507142037 59 0 0.0 1.7 0.00 0.00 0.00 89 1015.4
20260507141551 59 101 0.0 1.7 0.00 0.00 0.00 89 1015.4
20260507141039 59 101 0.9 1.7 0.00 0.00 0.00 88 1015.5
20260507140535 59 101 0.0 0.9 0.00 0.00 0.00 88 1015.5
20260507140106 59 0 0.0 0.9 0.00 0.00 0.00 88 1015.6
20260507135536 59 101 0.0 0.9 0.00 0.00 0.00 88 1015.7
20260507135039 59 101 0.0 0.9 0.00 0.00 0.00 88 1015.8
20260507134548 59 0 0.0 0.9 0.00 0.00 0.00 87 1015.8
20260507134038 59 101 0.0 0.0 0.00 0.00 0.00 87 1015.8
20260507133540 59 101 0.0 0.9 0.00 0.00 0.00 87 1015.8
20260507133048 58 0 0.0 0.9 0.00 0.00 0.00 88 1015.9
20260507132536 58 0 0.0 0.0 0.00 0.00 0.00 87 1015.9
20260507132038 58 0 0.0 0.9 0.00 0.00 0.00 87 1016.0
20260507131554 58 0 0.0 1.7 0.00 0.00 0.00 87 1016.0
20260507131042 58 101 0.9 1.7 0.00 0.00 0.00 88 1016.0
20260507130537 58 101 0.0 1.7 0.00 0.00 0.00 88 1016.1
20260507130058 58 0 0.0 1.7 0.00 0.00 0.00 88 1016.1
20260507125536 58 101 0.0 0.9 0.00 0.00 0.00 87 1016.1
20260507125037 58 0 0.0 0.9 0.00 0.00 0.00 87 1016.2
20260507124604 58 0 0.0 0.9 0.00 0.00 0.00 88 1016.2
20260507124036 58 101 0.0 0.9 0.00 0.00 0.00 88 1016.2
20260507123536 58 0 0.0 0.9 0.00 0.00 0.00 88 1016.3
20260507123058 58 0 0.0 0.9 0.00 0.00 0.00 87 1016.3
20260507122538 58 101 0.0 0.0 0.00 0.00 0.00 87 1016.3
20260507122040 58 0 0.0 0.0 0.00 0.00 0.00 87 1016.3
20260507121550 58 0 0.0 0.0 0.00 0.00 0.00 87 1016.4
20260507121039 58 0 0.0 0.0 0.00 0.00 0.00 87 1016.3
20260507120536 58 0 0.0 0.0 0.00 0.00 0.00 87 1016.2
20260507120054 58 0 0.0 0.0 0.00 0.00 0.00 87 1016.2
20260507115539 57 0 0.0 0.0 0.00 0.00 0.00 86 1016.2
20260507115038 57 0 0.0 0.0 0.00 0.00 0.00 86 1016.2
20260507114548 58 0 0.0 0.0 0.00 0.00 0.00 85 1016.2
20260507114040 58 0 0.0 0.9 0.00 0.00 0.00 85 1016.3
20260507113539 58 0 0.0 0.9 0.00 0.00 0.00 85 1016.4
20260507113049 58 0 0.0 0.9 0.00 0.00 0.00 85 1016.4
20260507112539 58 0 0.0 0.9 0.00 0.00 0.00 86 1016.5
20260507112038 58 0 0.0 0.9 0.00 0.00 0.00 86 1016.5
20260507111552 58 109 0.0 0.9 0.00 0.00 0.00 86 1016.4
20260507111038 58 0 0.0 0.9 0.00 0.00 0.00 85 1016.5
20260507110539 59 0 0.0 0.9 0.00 0.00 0.00 85 1016.6
20260507110051 59 109 0.0 0.9 0.00 0.00 0.00 85 1016.6
20260507105538 59 109 0.0 1.7 0.00 0.00 0.00 85 1016.7